sat.trackr.live / text

‹ back to catalog

STARLINK-2068

NORAD 47722 · 2021-017A

PAYLOAD ACTIVE UNKNOWN

§ Identity

Operator
Country
US
Launch date
2021-03-04
Launch site
AFETR
Launch vehicle
Mass (kg)
RCS (m²)

Purposes: comms

External: N2YO · Heavens-Above · Gunter

§ Orbital elements

Epoch: 2026-05-24T20:24:31.728672Z

Period
94.01 min
Inclination
53.1584°
Eccentricity
0.0001249
Mean motion
15.31696807 rev/d
Perigee alt
469.9 km
Apogee alt
471.6 km
Semi-major
6,848.9 km
B*
4.3767e-5
RAAN
196.7857°
Arg perigee
84.2386°
Mean anomaly
275.8758°
Rev number
28,974

§ Raw data

STARLINK-20681 47722U 21017A   26144.85036723  .00000993  00000+0  43767-4 0  99952 47722  53.1584 196.7857 0001249  84.2386 275.8758 15.31696807289748

JSON: /api/v1/satellites/47722 · /tle

For live sub-satellite position, see the globe view (requires WebGL).

§ Visibility from observer

Set your observer location to see the next 7 days of passes ≥ 10°. The values pass through the URL so the page stays shareable.

No JS? Fill the form by hand. The geolocation button needs JavaScript.